Location: Peebles
(55.6412°N, 3.1714°W)
Time: 09:42:30
(UTC+01:00)

NOSS 3-3 (A) - Pass Details

Date: 05 February 2022
Orbit: 789 x 1423 km, 63.4° (Epoch: 23 April)

Event Time Altitude Azimuth Distance (km) Brightness Sun altitude
Exits shadow 06:40:48 - 233° (SW) 3,366 6.4 -11.1°
Reaches altitude 10° 06:42:58 10° 235° (SW) 2,552 5.8 -10.8°
Maximum altitude 06:48:55 83° 323° (NW) 997 4.0 -10.0°
Drops below altitude 10° 06:55:56 10° 52° (NE) 2,984 7.1 -9.0°
Sets 06:58:50 0° 54° (NE) 4,045 7.8 -8.6°
